Weather in Tsaritsyno

Russia / Omsk Oblast     54°49′40″N   74°29′14″E
temp.,
°C
wind,
m/s
gust,
m/s
humid.,
%
clouds,
%
prec.,
mm/h
press.,
hPa
HPBL,
m
13 august, sat
sat1300:00+16w4794100 2.1 1011233
03:00+15wnw41096100 0.6 1010338
06:00+12wnw410944 0.6 1011270
09:00+16wnw59745 0.0 1011504
12:00+22w684637 0.0 10101841
15:00+24w6939100 0.0 10082512
18:00+22wsw6104895 0.0 10081024
21:00+20wsw7145380 0.0 1007671
14 august, sun
sun1400:00+16w6139099 0.6 1007398
03:00+13w4128921 0.0 1007291
06:00+12wnw513890 0.0 1008446
09:00+15wnw7107119 0.0 1010810
12:00+17nw896368 0.0 10111245
15:00+18nw895657 0.1 10121588
18:00+17nw6104915 0.1 1012878
21:00+13wnw47655 0.0 1014115
15 august, mon
mon1500:00+14wnw4106464 0.0 1014454
03:00+10nw410845 0.0 1014222
06:00+8wnw38935 0.0 1016180
09:00+14nw58653 0.0 1016751
12:00+17nw784799 0.0 10161933
15:00+16nw694480 0.0 10161894
18:00+18nnw693946 0.0 10162234
21:00+12n485370 0.0 1018151
16 august, tue
tue1600:00+9wnw356094 0.0 101866
03:00+10n36625 0.0 1018206
06:00+6nnw36805 0.0 1019114
09:00+11nnw57575 0.0 10201007
12:00+15nnw56415 0.0 10191593
15:00+18nw57367 0.0 10182017
18:00+19nw483752 0.0 10162240
21:00+15nnw2249100 0.0 101623
17 august, wed
wed1700:00+14nw2254100 0.0 101525
03:00+11w3689100 1.6 1013207
06:00+9nw612946 2.5 1013352
09:00+12nnw697627 0.0 1013587
12:00+15nw685459 0.4 10131626
15:00+16nw7841100 0.3 10122526
18:00+13nw6865100 0.8 1014980
21:00+9nnw5118525 0.8 1015544